,,,PA_Meas_PMT16A,,PR_Meas_QMR101_102,,RH_Meas_QMH101,,SR_Meas_QMS101,,TA_Meas_QMH101,,GenWind,,GenWind,
date,time,status,PA,status,PR,status,RH,status,SR,status,TA,status,DirAvg,status,SpdAvg,
2012-03-18, 00:00:04,VALID,1009.96,VALID,0,VALID,104,VALID,0.112112,VALID,23.7914,VALID,352,VALID,0,
2012-03-18, 00:01:04,VALID,1009.93,VALID,0,VALID,104,VALID,0,VALID,23.772,VALID,352,VALID,0,
2012-03-18, 00:02:04,VALID,1009.92,VALID,0,VALID,104,VALID,0.112112,VALID,23.7525,VALID,352,VALID,0,
2012-03-18, 00:03:04,VALID,1009.89,VALID,0,VALID,104,VALID,0,VALID,23.7135,VALID,352,VALID,0,
2012-03-18, 00:04:04,VALID,1009.9,VALID,0,VALID,104,VALID,0.112112,VALID,23.6922,VALID,352,VALID,0,
2012-03-18, 00:05:04,VALID,1009.91,VALID,0,VALID,104,VALID,0.112112,VALID,23.7135,VALID,352,VALID,0,
2012-03-18, 00:06:04,VALID,1009.89,VALID,0,VALID,104,VALID,0,VALID,23.7135,VALID,352,VALID,0,
2012-03-18, 00:07:04,VALID,1009.91,VALID,0,VALID,104,VALID,0,VALID,23.7135,VALID,352,VALID,0,
2012-03-18, 00:08:04,VALID,1009.88,VALID,0,VALID,104,VALID,0,VALID,23.7135,VALID,352,VALID,0.105078,
2012-03-18, 00:09:04,VALID,1009.9,VALID,0,VALID,104,VALID,0,VALID,23.733,VALID,352,VALID,0.173047,
2012-03-18, 00:10:04,VALID,1009.85,VALID,0,VALID,104,VALID,0,VALID,23.694,VALID,352,VALID,0.220703,
2012-03-18, 00:11:04,VALID,1009.84,VALID,0,VALID,104,VALID,0,VALID,23.694,VALID,352,VALID,0.117578,
2012-03-18, 00:12:04,VALID,1009.82,VALID,0,VALID,104,VALID,0,VALID,23.6745,VALID,352,VALID,0.00234375,
2012-03-18, 00:13:04,VALID,1009.8,VALID,0,VALID,104,VALID,0,VALID,23.655,VALID,352,VALID,0.232422,
2012-03-18, 00:14:04,VALID,1009.78,VALID,0,VALID,104,VALID,0,VALID,23.655,VALID,352,VALID,0.238281,
2012-03-18, 00:15:04,VALID,1009.78,VALID,0,VALID,104,VALID,0,VALID,23.6356,VALID,352,VALID,0.157422,
2012-03-18, 00:16:04,VALID,1009.78,VALID,0,VALID,104,VALID,0,VALID,23.6161,VALID,352,VALID,0.0476562,
2012-03-18, 00:17:04,VALID,1009.75,VALID,0,VALID,104,VALID,0,VALID,23.5966,VALID,352,VALID,0.141406,
2012-03-18, 00:18:04,VALID,1009.74,VALID,0,VALID,104,VALID,0,VALID,23.5966,VALID,352,VALID,0.197266,
2012-03-18, 00:19:04,VALID,1009.74,VALID,0,VALID,104,VALID,0,VALID,23.5966,VALID,352,VALID,0.267578,
2012-03-18, 00:20:04,VALID,1009.75,VALID,0,VALID,104,VALID,0,VALID,23.5771,VALID,352,VALID,0.210938,
2012-03-18, 00:21:04,VALID,1009.71,VALID,0,VALID,104,VALID,0,VALID,23.5966,VALID,352,VALID,0.3375,
2012-03-18, 00:22:04,VALID,1009.73,VALID,0,VALID,104,VALID,0,VALID,23.5771,VALID,352,VALID,0.321484,
2012-03-18, 00:23:04,VALID,1009.68,VALID,0,VALID,104,VALID,0,VALID,23.5771,VALID,352,VALID,0.304688,
2012-03-18, 00:24:04,VALID,1009.65,VALID,0,VALID,104,VALID,0,VALID,23.5576,VALID,352,VALID,0.248047,
2012-03-18, 00:25:04,VALID,1009.65,VALID,0,VALID,104,VALID,0,VALID,23.5381,VALID,352,VALID,0.266406,
2012-03-18, 00:26:04,VALID,1009.65,VALID,0,VALID,104,VALID,0,VALID,23.5789,VALID,352,VALID,0.00195313,
2012-03-18, 00:27:04,VALID,1009.65,VALID,0,VALID,104,VALID,0,VALID,23.5381,VALID,352,VALID,0,
2012-03-18, 00:28:04,VALID,1009.63,VALID,0,VALID,104,VALID,0,VALID,23.5381,VALID,352,VALID,0,
2012-03-18, 00:29:04,VALID,1009.62,VALID,0,VALID,104,VALID,0,VALID,23.5381,VALID,352,VALID,0,
2012-03-18, 00:30:04,VALID,1009.59,VALID,0,VALID,104,VALID,0,VALID,23.5381,VALID,352,VALID,0.366406,
2012-03-18, 00:31:04,VALID,1009.57,VALID,0,VALID,104,VALID,0,VALID,23.5789,VALID,352,VALID,0.372656,
2012-03-18, 00:32:04,VALID,1009.56,VALID,0,VALID,104,VALID,0,VALID,23.5576,VALID,352,VALID,0.324609,
2012-03-18, 00:33:04,VALID,1009.55,VALID,0,VALID,104,VALID,0,VALID,23.5771,VALID,352,VALID,0.284766,
2012-03-18, 00:34:04,VALID,1009.48,VALID,0,VALID,104,VALID,0,VALID,23.5576,VALID,352,VALID,0.207422,
2012-03-18, 00:35:04,VALID,1009.49,VALID,0,VALID,104,VALID,0,VALID,23.5771,VALID,352,VALID,0.293359,
2012-03-18, 00:36:04,VALID,1009.47,VALID,0,VALID,104,VALID,0,VALID,23.5771,VALID,352,VALID,0.357031,
2012-03-18, 00:37:04,VALID,1009.47,VALID,0,VALID,104,VALID,0,VALID,23.5771,VALID,352,VALID,0.359766,
2012-03-18, 00:38:04,VALID,1009.45,VALID,0,VALID,104,VALID,0,VALID,23.5381,VALID,352,VALID,0.249219,
2012-03-18, 00:39:04,VALID,1009.44,VALID,0,VALID,104,VALID,0,VALID,23.5186,VALID,352,VALID,0.0601562,
2012-03-18, 00:40:04,VALID,1009.44,VALID,0,VALID,104,VALID,0,VALID,23.5186,VALID,352,VALID,0,
2012-03-18, 00:41:04,VALID,1009.43,VALID,0,VALID,104,VALID,0,VALID,23.4992,VALID,352,VALID,0,
2012-03-18, 00:42:04,VALID,1009.43,VALID,0,VALID,104,VALID,0,VALID,23.4797,VALID,352,VALID,0,
2012-03-18, 00:43:04,VALID,1009.42,VALID,0,VALID,104,VALID,0,VALID,23.4797,VALID,352,VALID,0,
2012-03-18, 00:44:04,VALID,1009.42,VALID,0,VALID,104,VALID,0,VALID,23.5009,VALID,352,VALID,0,
2012-03-18, 00:45:04,VALID,1009.42,VALID,0,VALID,104,VALID,0,VALID,23.4602,VALID,352,VALID,0,
2012-03-18, 00:46:04,VALID,1009.4,VALID,0,VALID,104,VALID,0,VALID,23.4797,VALID,352,VALID,0,
2012-03-18, 00:47:04,VALID,1009.39,VALID,0,VALID,104,VALID,0,VALID,23.4797,VALID,352,VALID,0,
2012-03-18, 00:48:04,VALID,1009.41,VALID,0,VALID,104,VALID,0,VALID,23.4797,VALID,352,VALID,0,
2012-03-18, 00:49:04,VALID,1009.37,VALID,0,VALID,104,VALID,0,VALID,23.4797,VALID,352,VALID,0,
2012-03-18, 00:50:04,VALID,1009.36,VALID,0,VALID,104,VALID,0,VALID,23.4602,VALID,352,VALID,0,
2012-03-18, 00:51:04,VALID,1009.35,VALID,0,VALID,104,VALID,0,VALID,23.4602,VALID,352,VALID,0,
2012-03-18, 00:52:04,VALID,1009.35,VALID,0,VALID,104,VALID,0,VALID,23.4602,VALID,352,VALID,0,
2012-03-18, 00:53:04,VALID,1009.34,VALID,0,VALID,104,VALID,0,VALID,23.4407,VALID,352,VALID,0,
2012-03-18, 00:54:04,VALID,1009.34,VALID,0,VALID,104,VALID,0,VALID,23.4407,VALID,352,VALID,0,
2012-03-18, 00:55:04,VALID,1009.32,VALID,0,VALID,104,VALID,0,VALID,23.4407,VALID,352,VALID,0,
2012-03-18, 00:56:04,VALID,1009.3,VALID,0,VALID,104,VALID,0,VALID,23.4017,VALID,352,VALID,0,
2012-03-18, 00:57:04,VALID,1009.28,VALID,0,VALID,104,VALID,0,VALID,23.4212,VALID,352,VALID,0,
2012-03-18, 00:58:04,VALID,1009.25,VALID,0,VALID,104,VALID,0,VALID,23.4017,VALID,352,VALID,0.0636719,
2012-03-18, 00:59:04,VALID,1009.22,VALID,0,VALID,104,VALID,0,VALID,23.3823,VALID,352,VALID,0.200391,
2012-03-18, 01:00:04,VALID,1009.19,VALID,0,VALID,104,VALID,0,VALID,23.3645,VALID,352,VALID,0.3,
2012-03-18, 01:01:04,VALID,1009.15,VALID,0,VALID,104,VALID,0,VALID,23.3238,VALID,352,VALID,0.214062,
2012-03-18, 01:02:04,VALID,1009.12,VALID,0,VALID,104,VALID,0,VALID,23.3043,VALID,352,VALID,0.181641,
2012-03-18, 01:03:04,VALID,1009.08,VALID,0,VALID,104,VALID,0,VALID,23.2848,VALID,352,VALID,0.213281,
2012-03-18, 01:04:04,VALID,1009.07,VALID,0,VALID,104,VALID,0,VALID,23.3043,VALID,352,VALID,0,
2012-03-18, 01:05:04,VALID,1009.05,VALID,0,VALID,104,VALID,0,VALID,23.3043,VALID,352,VALID,0,
2012-03-18, 01:06:04,VALID,1009.02,VALID,0,VALID,104,VALID,0,VALID,23.3043,VALID,352,VALID,0.100781,
2012-03-18, 01:07:04,VALID,1008.99,VALID,0,VALID,104,VALID,0,VALID,23.3043,VALID,352,VALID,0.0859375,
2012-03-18, 01:08:04,VALID,1008.98,VALID,0,VALID,104,VALID,0,VALID,23.3238,VALID,352,VALID,0.223438,
2012-03-18, 01:09:04,VALID,1008.98,VALID,0,VALID,104,VALID,0,VALID,23.3238,VALID,352,VALID,0.284766,
2012-03-18, 01:10:04,VALID,1009,VALID,0,VALID,104,VALID,0,VALID,23.3238,VALID,352,VALID,0.1875,
2012-03-18, 01:11:04,VALID,1008.98,VALID,0,VALID,104,VALID,0,VALID,23.3433,VALID,352,VALID,0.163672,
2012-03-18, 01:12:04,VALID,1008.99,VALID,0,VALID,104,VALID,0,VALID,23.3433,VALID,352,VALID,0.046875,
2012-03-18, 01:13:04,VALID,1008.97,VALID,0,VALID,104,VALID,0,VALID,23.3433,VALID,352,VALID,0.197266,
2012-03-18, 01:14:05,VALID,1008.94,VALID,0,VALID,104,VALID,0,VALID,23.3433,VALID,352,VALID,0.155469,
2012-03-18, 01:15:04,VALID,1008.93,VALID,0,VALID,104,VALID,0,VALID,23.3628,VALID,352,VALID,0.0597656,
2012-03-18, 01:16:05,VALID,1008.93,VALID,0,VALID,104,VALID,0,VALID,23.3628,VALID,352,VALID,0.210156,
2012-03-18, 01:17:05,VALID,1008.95,VALID,0,VALID,104,VALID,0,VALID,23.3628,VALID,352,VALID,0.212891,
2012-03-18, 01:18:05,VALID,1008.93,VALID,0,VALID,104,VALID,0,VALID,23.3628,VALID,352,VALID,0.25,
2012-03-18, 01:19:05,VALID,1008.92,VALID,0,VALID,104,VALID,0,VALID,23.3628,VALID,352,VALID,0.15625,
2012-03-18, 01:20:05,VALID,1008.92,VALID,0,VALID,104,VALID,0,VALID,23.3628,VALID,352,VALID,0.104687,
2012-03-18, 01:21:05,VALID,1008.9,VALID,0,VALID,104,VALID,0,VALID,23.3628,VALID,352,VALID,0,
2012-03-18, 01:22:05,VALID,1008.88,VALID,0,VALID,104,VALID,0,VALID,23.3823,VALID,352,VALID,0.00078125,
2012-03-18, 01:23:05,VALID,1008.89,VALID,0,VALID,104,VALID,0,VALID,23.3823,VALID,352,VALID,0.101953,
2012-03-18, 01:24:05,VALID,1008.89,VALID,0,VALID,104,VALID,0,VALID,23.3823,VALID,352,VALID,0.00859375,
2012-03-18, 01:25:05,VALID,1008.89,VALID,0,VALID,104,VALID,0,VALID,23.3823,VALID,352,VALID,0.0589844,
2012-03-18, 01:26:05,VALID,1008.87,VALID,0,VALID,104,VALID,0,VALID,23.3823,VALID,352,VALID,0,
2012-03-18, 01:27:05,VALID,1008.9,VALID,0,VALID,104,VALID,0,VALID,23.3628,VALID,352,VALID,0,
2012-03-18, 01:28:05,VALID,1008.88,VALID,0,VALID,104,VALID,0,VALID,23.3628,VALID,352,VALID,0,
2012-03-18, 01:29:05,VALID,1008.87,VALID,0,VALID,104,VALID,0,VALID,23.3628,VALID,352,VALID,0,
2012-03-18, 01:30:05,VALID,1008.87,VALID,0,VALID,104,VALID,0,VALID,23.3628,VALID,352,VALID,0,
2012-03-18, 01:31:05,VALID,1008.85,VALID,0,VALID,104,VALID,0,VALID,23.3628,VALID,352,VALID,0.0433594,
2012-03-18, 01:32:05,VALID,1008.82,VALID,0,VALID,104,VALID,0,VALID,23.3628,VALID,352,VALID,0.0460938,
2012-03-18, 01:33:05,VALID,1008.81,VALID,0,VALID,104,VALID,0,VALID,23.3628,VALID,352,VALID,0.192969,
2012-03-18, 01:34:05,VALID,1008.82,VALID,0,VALID,104,VALID,0,VALID,23.3433,VALID,352,VALID,0.0652344,
2012-03-18, 01:35:05,VALID,1008.8,VALID,0,VALID,104,VALID,0,VALID,23.3238,VALID,352,VALID,0,
2012-03-18, 01:36:05,VALID,1008.78,VALID,0,VALID,104,VALID,0,VALID,23.3043,VALID,352,VALID,0,
2012-03-18, 01:37:05,VALID,1008.79,VALID,0,VALID,104,VALID,0,VALID,23.3043,VALID,352,VALID,0,
2012-03-18, 01:38:05,VALID,1008.78,VALID,0,VALID,104,VALID,0,VALID,23.2848,VALID,352,VALID,0,
2012-03-18, 01:39:05,VALID,1008.76,VALID,0,VALID,104,VALID,0,VALID,23.2848,VALID,352,VALID,0,
2012-03-18, 01:40:05,VALID,1008.75,VALID,0,VALID,104,VALID,0,VALID,23.2848,VALID,352,VALID,0,
2012-03-18, 01:41:05,VALID,1008.8,VALID,0,VALID,104,VALID,0,VALID,23.2654,VALID,352,VALID,0,
2012-03-18, 01:42:05,VALID,1008.77,VALID,0,VALID,104,VALID,0,VALID,23.2459,VALID,352,VALID,0,
2012-03-18, 01:43:05,VALID,1008.79,VALID,0,VALID,104,VALID,0,VALID,23.2459,VALID,352,VALID,0,
2012-03-18, 01:44:05,VALID,1008.78,VALID,0,VALID,104,VALID,0,VALID,23.2246,VALID,352,VALID,0,
2012-03-18, 01:45:05,VALID,1008.77,VALID,0,VALID,104,VALID,0,VALID,23.2459,VALID,352,VALID,0,
2012-03-18, 01:46:05,VALID,1008.78,VALID,0,VALID,104,VALID,0,VALID,23.2264,VALID,352,VALID,0,
2012-03-18, 01:47:05,VALID,1008.78,VALID,0,VALID,104,VALID,0,VALID,23.2264,VALID,352,VALID,0,
2012-03-18, 01:48:05,VALID,1008.76,VALID,0,VALID,104,VALID,0,VALID,23.2459,VALID,352,VALID,0,
2012-03-18, 01:49:05,VALID,1008.79,VALID,0,VALID,104,VALID,0,VALID,23.2051,VALID,352,VALID,0,
2012-03-18, 01:50:05,VALID,1008.8,VALID,0,VALID,104,VALID,0,VALID,23.2459,VALID,352,VALID,0,
2012-03-18, 01:51:05,VALID,1008.79,VALID,0,VALID,104,VALID,0,VALID,23.2459,VALID,352,VALID,0,
2012-03-18, 01:52:05,VALID,1008.8,VALID,0,VALID,104,VALID,0,VALID,23.2654,VALID,352,VALID,0,
2012-03-18, 01:53:05,VALID,1008.8,VALID,0,VALID,104,VALID,0,VALID,23.2246,VALID,352,VALID,0.479297,
2012-03-18, 01:54:05,VALID,1008.82,VALID,0,VALID,104,VALID,0,VALID,23.2459,VALID,352,VALID,0.467187,
2012-03-18, 01:55:05,VALID,1008.82,VALID,0,VALID,104,VALID,0,VALID,23.2476,VALID,352,VALID,0.30625,
2012-03-18, 01:56:05,VALID,1008.8,VALID,0,VALID,104,VALID,0,VALID,23.2264,VALID,352,VALID,0.280859,
2012-03-18, 01:57:05,VALID,1008.83,VALID,0,VALID,104,VALID,0,VALID,23.2264,VALID,352,VALID,0.345703,
2012-03-18, 01:58:05,VALID,1008.83,VALID,0,VALID,104,VALID,0,VALID,23.2264,VALID,352,VALID,0.333594,
2012-03-18, 01:59:05,VALID,1008.84,VALID,0,VALID,104,VALID,0,VALID,23.2051,VALID,352,VALID,0.0636719,
2012-03-18, 02:00:05,VALID,1008.86,VALID,0,VALID,104,VALID,0,VALID,23.2264,VALID,352,VALID,0.392578,
2012-03-18, 02:01:05,VALID,1008.84,VALID,0,VALID,104,VALID,0,VALID,23.2459,VALID,352,VALID,0.176172,
2012-03-18, 02:02:05,VALID,1008.87,VALID,0,VALID,104,VALID,0,VALID,23.2441,VALID,352,VALID,0,
2012-03-18, 02:03:05,VALID,1008.88,VALID,0,VALID,104,VALID,0,VALID,23.2654,VALID,352,VALID,0,
2012-03-18, 02:04:05,VALID,1008.86,VALID,0,VALID,104,VALID,0,VALID,23.2654,VALID,352,VALID,0.0953125,
2012-03-18, 02:05:05,VALID,1008.9,VALID,0,VALID,104,VALID,0,VALID,23.2654,VALID,352,VALID,0.205859,
2012-03-18, 02:06:05,VALID,1008.86,VALID,0,VALID,104,VALID,0,VALID,23.2848,VALID,352,VALID,0.00195313,
2012-03-18, 02:07:05,VALID,1008.86,VALID,0,VALID,104,VALID,0,VALID,23.2654,VALID,352,VALID,0,
2012-03-18, 02:08:05,VALID,1008.88,VALID,0,VALID,104,VALID,0,VALID,23.2848,VALID,352,VALID,0.1875,
2012-03-18, 02:09:05,VALID,1008.9,VALID,0,VALID,104,VALID,0,VALID,23.2848,VALID,352,VALID,0.441797,
2012-03-18, 02:10:05,VALID,1008.93,VALID,0,VALID,104,VALID,0,VALID,23.2848,VALID,352,VALID,0.0886719,
2012-03-18, 02:11:05,VALID,1008.92,VALID,0,VALID,104,VALID,0,VALID,23.2654,VALID,352,VALID,0,
2012-03-18, 02:12:05,VALID,1008.92,VALID,0,VALID,104,VALID,0,VALID,23.2654,VALID,352,VALID,0,
2012-03-18, 02:13:05,VALID,1008.96,VALID,0,VALID,104,VALID,0,VALID,23.2459,VALID,352,VALID,0,
2012-03-18, 02:14:05,VALID,1008.93,VALID,0,VALID,104,VALID,0.112112,VALID,23.2654,VALID,352,VALID,0.474219,
2012-03-18, 02:15:05,VALID,1008.92,VALID,0,VALID,104,VALID,0,VALID,23.2848,VALID,352,VALID,0,
2012-03-18, 02:16:05,VALID,1008.9,VALID,0,VALID,104,VALID,0,VALID,23.2848,VALID,352,VALID,0,
2012-03-18, 02:17:05,VALID,1008.93,VALID,0,VALID,104,VALID,0,VALID,23.2654,VALID,352,VALID,0.0222656,
2012-03-18, 02:18:05,VALID,1008.92,VALID,0,VALID,104,VALID,0,VALID,23.2459,VALID,352,VALID,0.0816406,
2012-03-18, 02:19:05,VALID,1008.93,VALID,0,VALID,104,VALID,0,VALID,23.2459,VALID,352,VALID,0.0695312,
2012-03-18, 02:20:05,VALID,1008.92,VALID,0,VALID,104,VALID,0,VALID,23.2459,VALID,352,VALID,0.342578,
2012-03-18, 02:21:05,VALID,1008.94,VALID,0,VALID,104,VALID,0,VALID,23.2264,VALID,352,VALID,0.195313,
2012-03-18, 02:22:05,VALID,1008.95,VALID,0,VALID,104,VALID,0,VALID,23.2264,VALID,352,VALID,0.200781,
2012-03-18, 02:23:05,VALID,1008.98,VALID,0,VALID,104,VALID,0,VALID,23.2264,VALID,352,VALID,0.370703,
2012-03-18, 02:24:05,VALID,1008.98,VALID,0,VALID,104,VALID,0,VALID,23.2069,VALID,352,VALID,0.502734,
2012-03-18, 02:25:05,VALID,1009,VALID,0,VALID,104,VALID,0,VALID,23.2069,VALID,352,VALID,0.346094,
2012-03-18, 02:26:05,VALID,1009.02,VALID,0,VALID,104,VALID,0,VALID,23.1874,VALID,352,VALID,0.108203,
2012-03-18, 02:27:05,VALID,1009.03,VALID,0,VALID,104,VALID,0,VALID,23.1679,VALID,352,VALID,0,
2012-03-18, 02:28:05,VALID,1009.01,VALID,0,VALID,104,VALID,0,VALID,23.1679,VALID,354,VALID,0.394141,
2012-03-18, 02:29:05,VALID,1009.04,VALID,0,VALID,104,VALID,0,VALID,23.1679,VALID,354,VALID,0.0605469,
2012-03-18, 02:30:05,VALID,1009.04,VALID,0,VALID,104,VALID,0,VALID,23.1679,VALID,354,VALID,0.332031,
2012-03-18, 02:31:05,VALID,1009.04,VALID,0,VALID,104,VALID,0,VALID,23.1874,VALID,354,VALID,0.445313,
2012-03-18, 02:32:05,VALID,1009.08,VALID,0,VALID,104,VALID,0.112112,VALID,23.1662,VALID,354,VALID,0.307813,
2012-03-18, 02:33:05,VALID,1009.07,VALID,0,VALID,104,VALID,0.112112,VALID,23.1874,VALID,354,VALID,0.119141,
2012-03-18, 02:34:05,VALID,1009.1,VALID,0,VALID,104,VALID,0,VALID,23.1874,VALID,354,VALID,0.0078125,
2012-03-18, 02:35:05,VALID,1009.11,VALID,0,VALID,104,VALID,0,VALID,23.1485,VALID,354,VALID,0,
2012-03-18, 02:36:05,VALID,1009.12,VALID,0,VALID,104,VALID,0,VALID,23.1485,VALID,354,VALID,0,
2012-03-18, 02:37:05,VALID,1009.13,VALID,0,VALID,104,VALID,0,VALID,23.1485,VALID,354,VALID,0,
2012-03-18, 02:38:05,VALID,1009.12,VALID,0,VALID,104,VALID,0,VALID,23.1485,VALID,354,VALID,0.31875,
2012-03-18, 02:39:05,VALID,1009.16,VALID,0,VALID,104,VALID,0,VALID,23.1874,VALID,354,VALID,0.494141,
2012-03-18, 02:40:05,VALID,1009.16,VALID,0,VALID,104,VALID,0,VALID,23.1874,VALID,354,VALID,0.230859,
2012-03-18, 02:41:05,VALID,1009.12,VALID,0,VALID,104,VALID,0,VALID,23.2069,VALID,354,VALID,0,
2012-03-18, 02:42:05,VALID,1009.13,VALID,0,VALID,104,VALID,0,VALID,23.2051,VALID,354,VALID,0.0921875,
2012-03-18, 02:43:05,VALID,1009.1,VALID,0,VALID,104,VALID,0,VALID,23.1874,VALID,354,VALID,0,
2012-03-18, 02:44:05,VALID,1009.09,VALID,0,VALID,104,VALID,0,VALID,23.1679,VALID,354,VALID,0,
2012-03-18, 02:45:05,VALID,1009.07,VALID,0,VALID,104,VALID,0,VALID,23.1679,VALID,354,VALID,0,
2012-03-18, 02:46:05,VALID,1009.09,VALID,0,VALID,104,VALID,0,VALID,23.1485,VALID,354,VALID,0.166406,
2012-03-18, 02:47:05,VALID,1009.09,VALID,0,VALID,104,VALID,0,VALID,23.1874,VALID,354,VALID,0.0441406,
2012-03-18, 02:48:05,VALID,1009.07,VALID,0,VALID,104,VALID,0,VALID,23.1874,VALID,354,VALID,0.182031,
2012-03-18, 02:49:05,VALID,1009.09,VALID,0,VALID,104,VALID,0,VALID,23.1874,VALID,354,VALID,0.0398437,
2012-03-18, 02:50:05,VALID,1009.09,VALID,0,VALID,104,VALID,0,VALID,23.1874,VALID,354,VALID,0,
2012-03-18, 02:51:05,VALID,1009.08,VALID,0,VALID,104,VALID,0,VALID,23.1679,VALID,355,VALID,0.523828,
2012-03-18, 02:52:05,VALID,1009.11,VALID,0,VALID,104,VALID,0,VALID,23.1874,VALID,355,VALID,0.203125,
2012-03-18, 02:53:05,VALID,1009.12,VALID,0,VALID,104,VALID,0,VALID,23.1662,VALID,355,VALID,0,
2012-03-18, 02:54:05,VALID,1009.11,VALID,0,VALID,104,VALID,0,VALID,23.1874,VALID,355,VALID,0,
2012-03-18, 02:55:05,VALID,1009.12,VALID,0,VALID,104,VALID,0,VALID,23.1874,VALID,355,VALID,0.160938,
2012-03-18, 02:56:05,VALID,1009.12,VALID,0,VALID,104,VALID,0,VALID,23.2069,VALID,355,VALID,0,
2012-03-18, 02:57:05,VALID,1009.1,VALID,0,VALID,104,VALID,0,VALID,23.1874,VALID,355,VALID,0,
2012-03-18, 02:58:05,VALID,1009.1,VALID,0,VALID,104,VALID,0,VALID,23.1874,VALID,355,VALID,0.0015625,
2012-03-18, 02:59:05,VALID,1009.09,VALID,0,VALID,104,VALID,0,VALID,23.1874,VALID,355,VALID,0,
2012-03-18, 03:00:05,VALID,1009.11,VALID,0,VALID,104,VALID,0,VALID,23.1662,VALID,355,VALID,0,
2012-03-18, 03:01:05,VALID,1009.12,VALID,0,VALID,104,VALID,0,VALID,23.1874,VALID,355,VALID,0.114063,
2012-03-18, 03:02:05,VALID,1009.11,VALID,0,VALID,104,VALID,0.112112,VALID,23.1874,VALID,355,VALID,0.148828,
2012-03-18, 03:03:05,VALID,1009.12,VALID,0,VALID,104,VALID,0.112112,VALID,23.1874,VALID,355,VALID,0.000390625,
2012-03-18, 03:04:05,VALID,1009.13,VALID,0,VALID,104,VALID,0.112112,VALID,23.1874,VALID,355,VALID,0,
2012-03-18, 03:05:05,VALID,1009.12,VALID,0,VALID,104,VALID,0,VALID,23.1679,VALID,355,VALID,0,
2012-03-18, 03:06:05,VALID,1009.14,VALID,0,VALID,104,VALID,0,VALID,23.1874,VALID,355,VALID,0,
2012-03-18, 03:07:05,VALID,1009.15,VALID,0,VALID,104,VALID,0,VALID,23.1467,VALID,355,VALID,0,
2012-03-18, 03:08:05,VALID,1009.17,VALID,0,VALID,104,VALID,0,VALID,23.1679,VALID,355,VALID,0,
2012-03-18, 03:09:05,VALID,1009.15,VALID,0,VALID,104,VALID,0,VALID,23.1679,VALID,355,VALID,0,
2012-03-18, 03:10:05,VALID,1009.16,VALID,0,VALID,104,VALID,0,VALID,23.1485,VALID,355,VALID,0,
2012-03-18, 03:11:05,VALID,1009.17,VALID,0,VALID,104,VALID,0.112112,VALID,23.1485,VALID,355,VALID,0,
2012-03-18, 03:12:05,VALID,1009.21,VALID,0,VALID,104,VALID,0,VALID,23.129,VALID,355,VALID,0,
2012-03-18, 03:13:05,VALID,1009.22,VALID,0,VALID,104,VALID,0,VALID,23.129,VALID,355,VALID,0,
2012-03-18, 03:14:05,VALID,1009.22,VALID,0,VALID,104,VALID,0,VALID,23.1095,VALID,355,VALID,0,
2012-03-18, 03:15:05,VALID,1009.21,VALID,0,VALID,104,VALID,0,VALID,23.1095,VALID,359,VALID,0.558984,
2012-03-18, 03:16:05,VALID,1009.23,VALID,0,VALID,104,VALID,0,VALID,23.1095,VALID,360,VALID,0.107813,
2012-03-18, 03:17:05,VALID,1009.24,VALID,0,VALID,104,VALID,0,VALID,23.1095,VALID,360,VALID,0.00507812,
2012-03-18, 03:18:05,VALID,1009.28,VALID,0,VALID,104,VALID,0,VALID,23.129,VALID,360,VALID,0.264062,
2012-03-18, 03:19:05,VALID,1009.26,VALID,0,VALID,104,VALID,0,VALID,23.1485,VALID,360,VALID,0,
2012-03-18, 03:20:05,VALID,1009.28,VALID,0,VALID,104,VALID,0,VALID,23.1307,VALID,360,VALID,0,
2012-03-18, 03:21:05,VALID,1009.26,VALID,0,VALID,104,VALID,0,VALID,23.1095,VALID,360,VALID,0,
2012-03-18, 03:22:05,VALID,1009.28,VALID,0,VALID,104,VALID,0,VALID,23.1095,VALID,360,VALID,0.222656,
2012-03-18, 03:23:05,VALID,1009.29,VALID,0,VALID,104,VALID,0,VALID,23.129,VALID,360,VALID,0,
2012-03-18, 03:24:05,VALID,1009.29,VALID,0,VALID,104,VALID,0,VALID,23.1095,VALID,360,VALID,0,
2012-03-18, 03:25:05,VALID,1009.31,VALID,0,VALID,104,VALID,0,VALID,23.1095,VALID,360,VALID,0,
2012-03-18, 03:26:05,VALID,1009.32,VALID,0,VALID,104,VALID,0,VALID,23.1095,VALID,360,VALID,0,
2012-03-18, 03:27:05,VALID,1009.32,VALID,0,VALID,104,VALID,0,VALID,23.1095,VALID,360,VALID,0,
2012-03-18, 03:28:05,VALID,1009.31,VALID,0,VALID,104,VALID,0,VALID,23.1095,VALID,360,VALID,0,
2012-03-18, 03:29:05,VALID,1009.33,VALID,0,VALID,104,VALID,0,VALID,23.1112,VALID,360,VALID,0,
2012-03-18, 03:30:05,VALID,1009.3,VALID,0,VALID,104,VALID,0,VALID,23.0705,VALID,360,VALID,0,
2012-03-18, 03:31:05,VALID,1009.29,VALID,0,VALID,104,VALID,0,VALID,23.0705,VALID,360,VALID,0,
2012-03-18, 03:32:05,VALID,1009.29,VALID,0,VALID,104,VALID,0,VALID,23.0493,VALID,360,VALID,0,
2012-03-18, 03:33:05,VALID,1009.29,VALID,0,VALID,104,VALID,0,VALID,23.0723,VALID,360,VALID,0,
2012-03-18, 03:34:05,VALID,1009.28,VALID,0,VALID,104,VALID,0,VALID,23.0705,VALID,360,VALID,0,
2012-03-18, 03:35:05,VALID,1009.3,VALID,0,VALID,104,VALID,0,VALID,23.0705,VALID,360,VALID,0,
2012-03-18, 03:36:05,VALID,1009.28,VALID,0,VALID,104,VALID,0,VALID,23.0705,VALID,360,VALID,0,
2012-03-18, 03:37:05,VALID,1009.29,VALID,0,VALID,104,VALID,0,VALID,23.0511,VALID,360,VALID,0,
2012-03-18, 03:38:05,VALID,1009.28,VALID,0,VALID,104,VALID,0,VALID,23.0705,VALID,360,VALID,0,
2012-03-18, 03:39:05,VALID,1009.33,VALID,0,VALID,104,VALID,0,VALID,23.0705,VALID,360,VALID,0.282813,
2012-03-18, 03:40:05,VALID,1009.29,VALID,0,VALID,104,VALID,0,VALID,23.0511,VALID,360,VALID,0,
2012-03-18, 03:41:05,VALID,1009.33,VALID,0,VALID,104,VALID,0,VALID,23.0511,VALID,360,VALID,0.00429688,
2012-03-18, 03:42:05,VALID,1009.32,VALID,0,VALID,104,VALID,0,VALID,23.0511,VALID,360,VALID,0,
2012-03-18, 03:43:05,VALID,1009.31,VALID,0,VALID,104,VALID,0,VALID,23.0511,VALID,360,VALID,0,
2012-03-18, 03:44:05,VALID,1009.28,VALID,0,VALID,104,VALID,0,VALID,23.0511,VALID,360,VALID,0,
2012-03-18, 03:45:05,VALID,1009.29,VALID,0,VALID,104,VALID,0,VALID,23.0316,VALID,360,VALID,0,
2012-03-18, 03:46:05,VALID,1009.28,VALID,0,VALID,104,VALID,0,VALID,23.0723,VALID,360,VALID,0,
2012-03-18, 03:47:05,VALID,1009.3,VALID,0,VALID,104,VALID,0,VALID,23.0723,VALID,360,VALID,0,
2012-03-18, 03:48:05,VALID,1009.31,VALID,0,VALID,104,VALID,0,VALID,23.0316,VALID,360,VALID,0.0199219,
2012-03-18, 03:49:05,VALID,1009.26,VALID,0,VALID,104,VALID,0,VALID,23.0528,VALID,360,VALID,0.0253906,
2012-03-18, 03:50:05,VALID,1009.26,VALID,0,VALID,104,VALID,0,VALID,23.0316,VALID,360,VALID,0,
2012-03-18, 03:51:05,VALID,1009.29,VALID,0,VALID,104,VALID,0,VALID,23.0316,VALID,360,VALID,0,
2012-03-18, 03:52:05,VALID,1009.31,VALID,0,VALID,104,VALID,0,VALID,23.0316,VALID,360,VALID,0,
2012-03-18, 03:53:05,VALID,1009.32,VALID,0,VALID,104,VALID,0.112112,VALID,23.0511,VALID,360,VALID,0,
2012-03-18, 03:54:05,VALID,1009.34,VALID,0,VALID,104,VALID,0,VALID,23.0511,VALID,360,VALID,0,
2012-03-18, 03:55:05,VALID,1009.33,VALID,0,VALID,104,VALID,0,VALID,23.0316,VALID,360,VALID,0,
2012-03-18, 03:56:05,VALID,1009.37,VALID,0,VALID,104,VALID,0,VALID,23.0723,VALID,360,VALID,0,
2012-03-18, 03:57:05,VALID,1009.4,VALID,0,VALID,104,VALID,0,VALID,23.0511,VALID,360,VALID,0,
2012-03-18, 03:58:04,VALID,1009.4,VALID,0,VALID,104,VALID,0,VALID,23.09,VALID,360,VALID,0,
2012-03-18, 03:59:04,VALID,1009.41,VALID,0,VALID,104,VALID,0,VALID,23.09,VALID,360,VALID,0.0105469,
2012-03-18, 04:00:04,VALID,1009.41,VALID,0,VALID,104,VALID,0.112112,VALID,23.09,VALID,360,VALID,0,